默认 日期 大小 文件数 浏览量 最新下载 xml
prague磁力链接相关资源由用户搜索指令自动获取,结果来源于网络,本站不存储任何资料,亦不承担任何责任,请于24小时内删除,搜索到1961个磁力,用时2ms。
    {"RARBG.txt": 30, "RARBG_DO_NOT_MIRROR.exe": 99, "LittleCapriceDreams.19.04.10.Backstage.In.Prague.XXX.SD.MP4-KLEENEX.mp4": 174804950}
创建时间: 2019-04-21 01:45:06 大小:166.71 MB 文件数量:3 热度:12 最近下载:2025-04-04 15:33:03
    ... Czech Miniatures) - back.jpg": 1662344, "Prague SO - Slavné Ceské Malickosti (Famous ... Czech Miniatures) - front.jpg": 1224015, "Prague SO - Slavné Ceské Malickosti (Famous ... Czech Miniatures) - inside.jpg": 988350, "Prague SO - Slavné Ceské Malickosti (Famous ...
创建时间: 2019-04-21 05:50:52 大小:235.61 MB 文件数量:25 热度:11 最近下载:2025-02-06 19:39:03
    ... .19.04.10.backstage.in.prague.mp4": 773204900, "lcd.19.04 ... .10.backstage.in.prague.nfo": 637, "Torrent Downloaded From ...
创建时间: 2019-04-21 16:41:30 大小:757.17 MB 文件数量:13 热度:13 最近下载:2025-04-04 15:32:01
    {"RARBG.txt": 30, "RARBG_DO_NOT_MIRROR.exe": 99, "lcd.19.04.10.backstage.in.prague.mp4": 773205067, "lcd.19.04.10.backstage.in.prague.nfo": 5213}
创建时间: 2019-04-21 17:33:22 大小:737.39 MB 文件数量:4 热度:21 最近下载:2025-04-04 15:32:02
    {"RARBG.com.txt": 34, "gush.14.02.18hideandseek.mp4": 2412768415, "gush.14.02.18hideandseek.nfo": 8920}
创建时间: 2019-04-22 18:23:21 大小:2.25 GB 文件数量:3 热度:14 最近下载:2025-02-24 20:49:03
    {"cover.jpg": 767575, "audiochecker.log": 1393, "02. Astrosphere - Zephyr (Live).flac": 29520523, "07. Astrosphere - Outflow (Live).flac": 32350305, "11. Astrosphere - Origins (Live).flac": 39550743, "05. Driftmoon - Renaissance (Live).flac": 37629180, "10 ...
创建时间: 2019-04-23 01:19:03 大小:542.3 MB 文件数量:16 热度:5 最近下载:2025-01-05 21:46:04
    {"cover.jpg": 60681, "01. Лётчик.mp3": 13083821, "12. Родина.mp3": 11785152, "02. Детство.mp3": 7809192, "09. Лунапарк.mp3": 10736949, "04. Ля-ля тополя.mp3": 12604362, "03. Чёрное солнце.mp3": 11784119, "06 .Виски (feat. John Grant).mp3": 8913634, "05. ...
创建时间: 2019-04-23 21:43:49 大小:197.13 MB 文件数量:20 热度:7 最近下载:2025-02-11 13:46:03
    ... No. 31 Paris No. 38 Prague - Josef Krips - RCO - Pentatone.iso ... No. 31 Paris No. 38 Prague - Josef Krips - RCO - Pentatone.md5 ...
创建时间: 2019-04-24 11:43:14 大小:2.23 GB 文件数量:14 热度:11 最近下载:2024-12-16 06:46:01
    {"lcd.19.04.10.backstage.in.prague[N1C].mp4": 773204900}
创建时间: 2019-04-25 06:09:17 大小:737.39 MB 文件数量:1 热度:8 最近下载:2025-04-04 16:31:01
    {"poster.jpg": 25285, "screens.jpg": 250803, "publick720.mp4": 766138301}
创建时间: 2019-04-26 01:44:17 大小:730.91 MB 文件数量:3 热度:10 最近下载:2025-04-04 05:50:02
    ... Meets A Big Dick In Prague XXX CVRls.mp4": 289698542}
创建时间: 2019-04-26 14:58:40 大小:276.28 MB 文件数量:8 热度:9 最近下载:2025-02-08 18:50:02
    {"Sample": {"i.pec130226ggttiplip.s.mp4": 23813124}, "RARBG.com.txt": 34, "i.pec130226ggttiplip.mp4": 896623242, "i.pec130226ggttiplip.nfo": 2488}
创建时间: 2019-04-26 15:31:21 大小:877.8 MB 文件数量:4 热度:6 最近下载:2025-03-16 09:15:02
    {"Art": {"1.jpg": 4581355, "2.jpg": 2928145, "3.jpg": 4666985, "4.jpg": 4562280, "5.jpg": 4655401, "6.jpg": 4594094, "7.jpg": 4349006, "8.jpg": 3580312, "Back.jpg": 4046587, "Disc.jpg": 1580227, "Inlay.jpg": 4333476}, "Front.jpg": 240227, "foo_dr.txt": ...
创建时间: 2019-04-26 19:35:37 大小:3.24 GB 文件数量:17 热度:17 最近下载:2024-12-09 20:36:03
    ... (Hen party gets wild in Prague taxi).mp4": 447881759}
创建时间: 2019-04-27 22:26:05 大小:427.33 MB 文件数量:6 热度:14 最近下载:2025-04-04 15:46:02
    {"The Science Fiction Album": {"Disc 1": {"17 - Dune.mp3": 5889770, "04 - Alien.mp3": 3921016, "13 - Contact.mp3": 8652499, "08 - Apollo 13.mp3": 3012609, "14 - Capricorn One.mp3": 3396411, "12 - The Black Hole.mp3": 5124707, "10 - Battle Beyond the Stars. ...
创建时间: 2019-04-28 00:33:47 大小:282.24 MB 文件数量:71 热度:4 最近下载:2024-11-21 02:09:02
    ... 01.flac": 10793067, "bd20190408 Prague MM track 02.flac": 33994031 ... , "bd20190408 Prague MM track 03.flac": ... 27871748, "bd20190408 Prague MM track 04.flac": ... 22.flac": 34995467, "bd20190408 Prague MM track 23.flac": 22792824}
创建时间: 2019-04-28 06:23:16 大小:740.56 MB 文件数量:25 热度:8 最近下载:2025-03-14 00:49:01
    {"Free Games.txt": 56, "The Most Trusted VPN.txt": 207, "92629989_vanessa_a0061.jpg": 643470, "92629992_vanessa_a0062.jpg": 669523, "92629994_vanessa_a0063.jpg": 379615, "92629995_vanessa_a0064.jpg": 370966, "92629997_vanessa_a0065.jpg": 389523, " ...
创建时间: 2019-04-28 11:51:28 大小:20.7 MB 文件数量:34 热度:10 最近下载:2025-08-03 10:56:03
    {"JmTv.Susan.SD.mp4": 467304646}
创建时间: 2019-04-29 02:39:56 大小:445.66 MB 文件数量:1 热度:6 最近下载:2024-10-17 01:50:02
    {"poster.jpg": 46759, "screens.jpg": 147711, "RARBG.com.txt": 33, "LegalPorno.Dap.Destination.for.Lola.Shine.She.arrives.to.Prague.and.she.gets.Dapped.f.mp4": 1024843459}
创建时间: 2019-04-29 02:41:17 大小:977.55 MB 文件数量:4 热度:8 最近下载:2025-10-14 03:30:02
    {"CodecSetup": {"readme.txt": 362, "CodecSetup-PC.z": 28627, "CodecSetup-MAC.z": 2950347}, "readme.txt": 362, "StrandedTeens - Sicilia (A Night in Prague) NEW 16 August 2018.mp4": 249454376}
创建时间: 2019-04-29 03:10:26 大小:240.74 MB 文件数量:5 热度:6 最近下载:2024-11-03 10:17:01